Miscellaneous Local Product
Issued by NWS Hastings, NE

Home | Current Version | Previous Version | Text Only | Print | Product List | Glossary Off
Versions: 1 2 3 4 5 6 7 8 9 10 11 12 13 14 15 16 17 18 19 20 21 22 23 24 25 26 27 28 29 30 31 32 33 34 35 36 37 38 39 40 41 42 43 44 45 46 47 48 49 50

000
AXUS43 KGID 141702
MISGRI

GID CWA HOURLY WEATHER ROUNDUP
NATIONAL WEATHER SERVICE HASTINGS NE
1200 PM CDT SUN SEP 14 2014

NOTE: "FAIR" INDICATES FEW OR NO CLOUDS BELOW 12,000 FEET WITH NO
SIGNIFICANT WEATHER AND/OR OBSTRUCTIONS TO VISIBILITY.

...SOUTH CENTRAL NEBRASKA...

CITY           SKY/WX    TMP DP  RH WIND       PRES   REMARKS
GRAND ISLAND   SUNNY     66  50  56 SE8       30.17F
HASTINGS       SUNNY     65  50  58 S8        30.16F
KEARNEY        SUNNY     63  52  67 SE7       30.16F
ORD            MOSUNNY   60  47  61 E6        30.15F
YORK           SUNNY     64  52  63 S6        30.18F
AURORA         SUNNY     65  50  57 S7        30.17F
LEXINGTON      SUNNY     61  52  72 NE5       30.15S
HOLDREGE       SUNNY     63  50  64 S7        30.14F
HEBRON         SUNNY     68  49  51 SE7       30.17F

...NEBRASKA PANHANDLE...

CITY           SKY/WX    TMP DP  RH WIND       PRES   REMARKS
CHADRON        CLOUDY    51  41  68 E12       30.12F
ALLIANCE       CLOUDY    53  48  83 S7        30.09F
SCOTTSBLUFF    CLOUDY    50  47  89 E6        30.10F
SIDNEY         CLOUDY    53  51  93 CALM      30.11S

...WESTERN AND NORTH CENTRAL NEBRASKA...

CITY           SKY/WX    TMP DP  RH WIND       PRES   REMARKS
VALENTINE      SUNNY     59  39  47 E12       30.13F
AINSWORTH      SUNNY     57  42  57 E15       30.15F
ONEILL         PTSUNNY   56  45  66 E9        30.18F
BROKEN BOW     MOSUNNY   63  47  55 SE10      30.14F
IMPERIAL       SUNNY     62  51  67 E7        30.11F
NORTH PLATTE   SUNNY     59  48  67 SE8       30.13F
MCCOOK         SUNNY     62  50  64 E9        30.12F

...EASTERN NEBRASKA...

CITY           SKY/WX    TMP DP  RH WIND       PRES   REMARKS
NORFOLK        PTSUNNY   59  46  62 CALM      30.18S
SO SIOUX CITY  PTSUNNY   61  49  64 VRB3      30.19F
TEKAMAH        MOSUNNY   63  49  60 S5        30.20F
ALBION         MOSUNNY   57  46  65 CALM      30.18S
OMAHA EPPLEY   MOSUNNY   65  49  56 S6        30.21F
OFFUTT AFB     SUNNY     66  54  64 S7        30.20F
LINCOLN        SUNNY     67  50  54 S8        30.20F
NEBRASKA CITY  SUNNY     66  41  39 S8        30.21F
BEATRICE       SUNNY     67  49  53 SW9       30.19F
FALLS CITY     SUNNY     69  50  50 SW8       30.21F

...NORTHERN KANSAS...

CITY           SKY/WX    TMP DP  RH WIND       PRES   REMARKS
GOODLAND       SUNNY     59  54  83 SE10      30.09F
HILL CITY      LGT RAIN  65  53  65 S9        30.13F
NORTON         SUNNY     63  48  59 SE5       30.12F
PHILLIPSBURG   SUNNY     66  52  59 SE8       30.14F
SMITH CENTER   SUNNY     64  52  63 SE9G17    30.15F
BELOIT         SUNNY     66  54  63 SE10      30.15F
HAYS           SUNNY     66  54  63 SE13G20   30.12F
RUSSELL        SUNNY     67  54  63 SE16      30.12F
CONCORDIA      SUNNY     67  53  61 S15G21    30.18F
SALINA         SUNNY     69  54  58 S13       30.18F
TOPEKA         SUNNY     69  52  54 SE10      30.21F



USA.gov is the U.S. government's official web portal to all federal, state and local government web resources and services.